World > North America > United States > Florida > Westville  

Westville, FL Hourly Weather Updates

Feedback E-mail the Weather

Quick Clicks

Westville, FL Weather Maps

°F °C°F °C
Westville Weather Map
UTC Time: 6/13/2024, 04:27
Your Time:

Westville, FL Regional Weather

Expires:202406130500;;922912
ASUS42 KTBW 130411
RWRFL 
FLORIDA REGIONAL WEATHER ROUNDUP
NATIONAL WEATHER SERVICE TAMPA BAY RUSKIN FL
1200 AM EDT THU JUN 13 2024

NOTE: "FAIR" INDICATES FEW OR NO CLOUDS BELOW 12,000 FEET WITH NO
SIGNIFICANT WEATHER AND/OR OBSTRUCTIONS TO VISIBILITY.


FLZ001>010-012>015-112-114-115-130500-
PANHANDLE FLORIDA
  
CITY           SKY/WX    TMP DP  RH WIND       PRES   REMARKS
PENSACOLA      CLEAR     76  63  64 N6        29.91S                  
MILTON NAS     PTCLDY    71  67  87 NW3       29.92S                  
CRESTVIEW      CLEAR     69  64  84 CALM      29.93S                  
DUKE FIELD     CLEAR     72  65  79 N5        29.91S                  
VALPARAISO     CLEAR     78  62  57 N3        29.91R                  
MARY ESTHER    CLEAR     78  64  60 N5        29.90R                  
PANAMA CITY    CLEAR     76  69  79 NW6       29.89S                  
TYNDALL AFB    CLEAR     83  69  61 NE5       29.88R                  
APALACHICOLA   CLEAR     80  75  84 NE5       29.89R                  

STATION/POSITION SKY/WX   TEMP    WIND        PRES    WAVE   SWELL
                          AIR SEA DIR/SP/G            HT/PER HT/PER
                          (F)     (DEG/KT/KT) (MB)    (FT/S) (FT/S)
30.1N   87.6W              85 86  300/  6/  8 1012.9R
29.2N   88.2W              85      80/  4/  6 1013.0S
PANAMA CITY BEAC                  350/  5/  6   N/A
TOWER C                    85                 1012.1R
28.5N   84.5W              85     320/  8/ 10 1011.5F   3/ 7   2/ 7

$$

SKY/WX - Weather  TMP - Temperature  DP - Dew Point  RH - Humidity
WIND - Wind Direction/Speed PRES - Barometric Pressure VSB - Visibility
WCI - Wind Chill Index E13G22 Wind - East Wind 13 mph/Gusts of 22 mph

Trending Headlines

Trending Entertainment Headlines

Westville Radar Loop

Use the map search tool if you want to place a location marker on the radar map...

Westville Quick Facts

National Two Day Weather Forecast


E-mail the Westville Weather Forecast

Voice your opinion or tell us about page issues...